Location: La Pernelle
(49.6188°N, 1.2999°W)
Time: 00:31:51
(UTC+00:00)

Cosmos 1461 - Visible Passes

Search period start: 24 October 2021 00:00
Search period end: 03 November 2021 00:00
Orbit: 520 x 642 km, 65.0° (Epoch: 23 October)

Date Brightness Start Highest point End Pass type
(mag) Time Alt. Az. Time Alt. Az. Time Alt. Az.
24 Oct 5.0 03:58:20 19° N 03:58:20 19° N 03:59:59 10° NNE visible
24 Oct 5.2 05:35:41 10° NNW 05:36:47 11° NNW 05:37:53 10° N visible
25 Oct 5.1 04:03:29 17° N 04:03:29 17° N 04:04:56 10° NNE visible
26 Oct 5.2 04:08:36 14° N 04:08:36 14° N 04:09:51 10° NNE visible
27 Oct 5.3 04:13:41 13° N 04:13:41 13° N 04:14:42 10° N visible
28 Oct 5.4 04:18:46 11° N 04:18:46 11° N 04:19:32 10° N visible
29 Oct 5.5 04:23:50 10° N 04:23:50 10° N 04:24:11 10° N visible
29 Oct 5.3 06:03:15 10° N 06:04:20 11° NNE 06:05:24 10° NNE visible
30 Oct 5.3 06:08:01 10° N 06:09:47 12° NNE 06:11:34 10° NE visible
31 Oct 5.2 06:12:51 10° NNW 06:15:13 15° NNE 06:17:34 10° ENE visible
01 Nov 5.0 06:17:44 10° NNW 06:20:37 18° NNE 06:23:26 10° ENE visible
02 Nov 5.5 04:45:11 10° N 04:45:28 10° N 04:45:45 10° NNE visible
